STARLINK-5590, 55371

Orbit data source: Space-Track

STARLINK-5590, 55371 is a payload satellite owned by SpaceX/Seattle (US) in LEO that was launched on Thu, 26 Jan 2023 UTC via an FALCON 9 launch vehicle from the Air Force Eastern Test Range (AFETR). Payload-class satellites include a variety of spacecraft equipped with specific instruments for various scientific and technological missions. These include communications satellites like Starlink; space stations such as the ISS; scientific satellites like the Hubble; Earth observation satellites from companies like Planet Labs, Umbra, and HawkEye 360; GPS; miniature CubeSats for education and research; and military/defense satellites.

Loading next visibility...
Identifier
55371, 2023-013AS
Orbit
LEO
Country
Flag of USUS
Related business
Manufacturer
SpaceX/Seattle
Mission
Operational Commercial Communications
Bus & Motor
STARLINK, Unknown motor
Mass
305 kg wet, ~290 kg dry
Launch date (UTC)
2023-01-26 (3 years ago)
Launch vehicle
FALCON 9
Launch site
Air Force Eastern Test Range (AFETR)
Object type
Payload
Rocket body
Debris
Shape & HBR
Box + 1 Pan, 10.1 m
Radar Cross Section
13.562 m², Large (>1 m²)

Expand to show TLE details & history
Last TLE update: 2 days ago

TLE from 2 days ago
0 STARLINK-5590
1 55371U 23013AS  26170.99793100  .00000208  00000-0  17093-4 0  9998
2 55371  43.0052 103.4305 0001402 273.5513  86.5179 15.27577299188036
Epoch: 2026-06-19T23:57Z
TLE epoch observation values (Epoch: 2026-06-19T23:57:01.238Z)
Latitude
0.00003°
Longitude
-164.0435°
Altitude
482.775 km
Speed
7.626 km/s
True Right ascension
06h 53m 43s
True Declination
0° 00' 00"
Sunlit
Object was in daylight at epoch
Visualization orbit readout
Latitude
Unknown
Longitude
Unknown
Altitude
Unknown
Speed
Unknown
Apparent Right ascension
Unknown
Apparent Declination
Unknown
Sunlit
N/A
Visualization observer readout
Local Sidereal Time
21:54:00
Azimuth
Unknown
Elevation
Unknown
Doppler factor
Unknown
Orbital elements
Apogee altitude
485.964 km
Perigee altitude
484.039 km
Semi-major axis
6,863.138 km
Eccentricity
0.00014
Inclination
43.0052°
RAAN
103.4305°
Arg. of periapsis
273.5513°
True anomaly
86.53394°
Mean anomaly
86.5179°
Eccentric anomaly
86.52592°
Mean motion
3.81732 °/min
Orbital period
94.31 mins
BSTAR
0.000017093
Loading maneuver chart data...
Computing Atmospheric mass density...
Loading historical data...
Loading historical data...
Loading historical data...
Loading historical data...
Loading historical data...
Loading historical data...
Loading historical data...

Documentation

Showing up to 5 results
|